TOM27P EGPH-EGCC

Flight info

Callsign TOM27P
Flight time 0h 39m
Altitude 24000
Route GOSAM P600 FENIK/N0412F250 L612 BEBNI/N0399F230 L612 LAKEY
Aircraft B738/M-SDE2E3FGHIRWXY/LB1

Departure

Time 2026-04-25 18:51
Airport Edinburgh Airport (EGPH)

Arrival

Time 2026-04-25 19:31
Airport Manchester Airport (EGCC)
Time Latitude Longitude Altitude Speed Heading
2026-04-25 18:32 55.94753 -3.36612 100 ft 0 kts 89°
2026-04-25 18:40 55.94753 -3.36634 100 ft 2 kts 89°
2026-04-25 18:40 55.94752 -3.36662 101 ft 2 kts 88°
2026-04-25 18:40 55.94752 -3.36692 101 ft 2 kts 86°
2026-04-25 18:40 55.94750 -3.36721 102 ft 2 kts 71°
2026-04-25 18:41 55.94739 -3.36740 102 ft 2 kts 358°
2026-04-25 18:41 55.94735 -3.36739 100 ft 0 kts 355°
2026-04-25 18:44 55.94742 -3.36741 102 ft 3 kts 349°
2026-04-25 18:44 55.94774 -3.36768 104 ft 7 kts 336°
2026-04-25 18:44 55.94830 -3.36780 105 ft 10 kts 359°
2026-04-25 18:45 55.94892 -3.36800 106 ft 8 kts 327°
2026-04-25 18:45 55.94925 -3.36877 108 ft 9 kts 271°
2026-04-25 18:45 55.94892 -3.37001 106 ft 13 kts 239°
2026-04-25 18:45 55.94834 -3.37171 108 ft 19 kts 239°
2026-04-25 18:46 55.94757 -3.37401 112 ft 23 kts 239°
2026-04-25 18:46 55.94672 -3.37650 113 ft 23 kts 238°
2026-04-25 18:46 55.94585 -3.37907 112 ft 26 kts 239°
2026-04-25 18:46 55.94487 -3.38194 113 ft 28 kts 239°
2026-04-25 18:47 55.94396 -3.38463 115 ft 25 kts 238°
2026-04-25 18:47 55.94322 -3.38680 120 ft 20 kts 238°
2026-04-25 18:47 55.94282 -3.38834 122 ft 3 kts 279°
2026-04-25 18:47 55.94294 -3.38870 119 ft 4 kts 309°
2026-04-25 18:48 55.94315 -3.38897 121 ft 4 kts 329°
2026-04-25 18:48 55.94317 -3.38899 122 ft 0 kts 328°
2026-04-25 18:48 55.94323 -3.38905 123 ft 3 kts 329°
2026-04-25 18:48 55.94355 -3.38939 119 ft 8 kts 330°
2026-04-25 18:49 55.94414 -3.38957 117 ft 10 kts 34°
2026-04-25 18:49 55.94451 -3.38867 120 ft 2 kts 58°
2026-04-25 18:49 55.94451 -3.38866 120 ft 0 kts 58°
2026-04-25 18:50 55.94455 -3.38855 119 ft 10 kts 58°
2026-04-25 18:50 55.94636 -3.38320 115 ft 86 kts 59°
2026-04-25 18:50 55.95054 -3.37086 125 ft 143 kts 59°
2026-04-25 18:51 55.95590 -3.35469 659 ft 152 kts 60°
2026-04-25 18:51 55.95981 -3.34394 1141 ft 157 kts 57°
2026-04-25 18:51 55.97069 -3.32552 2274 ft 165 kts 44°
2026-04-25 18:51 55.98022 -3.31052 2687 ft 201 kts 44°
2026-04-25 18:52 55.99136 -3.29263 3000 ft 227 kts 42°
2026-04-25 18:52 56.00589 -3.28011 3523 ft 241 kts
2026-04-25 18:52 56.02169 -3.28659 4270 ft 238 kts 325°
2026-04-25 18:52 56.03185 -3.30888 5103 ft 231 kts 288°
2026-04-25 18:53 56.03254 -3.33772 5694 ft 237 kts 258°
2026-04-25 18:53 56.02855 -3.36540 5937 ft 231 kts 256°
2026-04-25 18:53 56.02433 -3.39363 6001 ft 239 kts 257°
2026-04-25 18:53 56.01990 -3.42369 6273 ft 261 kts 256°
2026-04-25 18:54 56.01067 -3.48725 8100 ft 267 kts 256°
2026-04-25 18:54 56.00607 -3.51954 9065 ft 270 kts 255°
2026-04-25 18:54 56.00135 -3.55260 9854 ft 279 kts 255°
2026-04-25 18:55 55.99659 -3.58601 10839 ft 278 kts 255°
2026-04-25 18:55 55.99163 -3.62064 11211 ft 301 kts 255°
2026-04-25 18:55 55.98619 -3.65853 11416 ft 328 kts 255°
2026-04-25 18:55 55.98032 -3.69938 11804 ft 344 kts 255°
2026-04-25 18:56 55.97437 -3.74074 12649 ft 348 kts 255°
2026-04-25 18:56 55.96785 -3.78600 13191 ft 344 kts 255°
2026-04-25 18:56 55.96232 -3.82438 13242 ft 346 kts 254°
2026-04-25 18:56 55.95631 -3.86590 13253 ft 348 kts 255°
2026-04-25 18:57 55.95017 -3.90810 13267 ft 353 kts 255°
2026-04-25 18:57 55.94397 -3.95065 13253 ft 355 kts 255°
2026-04-25 18:57 55.93625 -3.99216 13243 ft 351 kts 242°
2026-04-25 18:57 55.92796 -4.01685 13260 ft 349 kts 233°
2026-04-25 18:58 55.90604 -4.05925 13235 ft 349 kts 219°
2026-04-25 18:58 55.86611 -4.10855 13240 ft 350 kts 213°
2026-04-25 18:58 55.84585 -4.13248 13239 ft 350 kts 213°
2026-04-25 18:59 55.80543 -4.18105 13232 ft 350 kts 214°
2026-04-25 18:59 55.76515 -4.23016 13440 ft 354 kts 214°
2026-04-25 19:00 55.72096 -4.26868 15034 ft 359 kts 187°
2026-04-25 19:00 55.69595 -4.26711 15804 ft 364 kts 171°
2026-04-25 19:01 55.64911 -4.22990 17215 ft 378 kts 153°
2026-04-25 19:01 55.62605 -4.20660 17795 ft 386 kts 152°
2026-04-25 19:01 55.60266 -4.18287 18507 ft 389 kts 152°
2026-04-25 19:01 55.57868 -4.15885 19098 ft 393 kts 153°
2026-04-25 19:02 55.53034 -4.11137 20236 ft 402 kts 154°
2026-04-25 19:02 55.50570 -4.08742 20796 ft 406 kts 154°
2026-04-25 19:02 55.48071 -4.06351 21347 ft 410 kts 155°
2026-04-25 19:03 55.44657 -4.03244 22066 ft 415 kts 155°
2026-04-25 19:03 55.40344 -3.99370 22928 ft 423 kts 155°
2026-04-25 19:03 55.37712 -3.97014 23478 ft 426 kts 155°
2026-04-25 19:04 55.32380 -3.92245 24198 ft 434 kts 155°
2026-04-25 19:04 55.29675 -3.89830 24211 ft 437 kts 155°
2026-04-25 19:05 55.24284 -3.85019 24214 ft 435 kts 155°
2026-04-25 19:05 55.18842 -3.80181 24217 ft 439 kts 155°
2026-04-25 19:05 55.16115 -3.77762 24219 ft 440 kts 155°
2026-04-25 19:06 55.13384 -3.75345 24221 ft 441 kts 155°
2026-04-25 19:06 55.07908 -3.70506 24222 ft 441 kts 155°
2026-04-25 19:06 55.05170 -3.68092 24224 ft 440 kts 155°
2026-04-25 19:07 54.99708 -3.63287 24221 ft 438 kts 155°
2026-04-25 19:07 54.96986 -3.60899 24222 ft 437 kts 155°
2026-04-25 19:08 54.91560 -3.56150 24219 ft 436 kts 155°
2026-04-25 19:08 54.88848 -3.53781 24219 ft 436 kts 155°
2026-04-25 19:09 54.80768 -3.46746 24226 ft 436 kts 155°
2026-04-25 19:09 54.79845 -3.45945 24223 ft 436 kts 155°
2026-04-25 19:09 54.72610 -3.39675 24226 ft 436 kts 156°
2026-04-25 19:10 54.69894 -3.37328 24214 ft 437 kts 156°
2026-04-25 19:10 54.67176 -3.34983 24215 ft 437 kts 156°
2026-04-25 19:10 54.65337 -3.33398 24220 ft 437 kts 156°
2026-04-25 19:10 54.61726 -3.30290 24223 ft 437 kts 156°
2026-04-25 19:11 54.59005 -3.27953 24221 ft 438 kts 156°
2026-04-25 19:11 54.57160 -3.26370 24219 ft 438 kts 156°
2026-04-25 19:11 54.54435 -3.24035 24211 ft 438 kts 156°
2026-04-25 19:11 54.50817 -3.20940 24209 ft 438 kts 156°
2026-04-25 19:12 54.48976 -3.19366 24100 ft 433 kts 156°
2026-04-25 19:12 54.46310 -3.17090 23848 ft 422 kts 156°
2026-04-25 19:12 54.43717 -3.14878 23553 ft 414 kts 156°
2026-04-25 19:12 54.41135 -3.12682 23293 ft 411 kts 156°
2026-04-25 19:13 54.38576 -3.10510 22938 ft 408 kts 156°
2026-04-25 19:13 54.36050 -3.08368 22484 ft 403 kts 156°
2026-04-25 19:13 54.33534 -3.06236 22004 ft 399 kts 156°
2026-04-25 19:13 54.31064 -3.04147 21535 ft 395 kts 156°
2026-04-25 19:14 54.28618 -3.02079 21069 ft 392 kts 156°
2026-04-25 19:14 54.26994 -3.00709 20766 ft 389 kts 156°
2026-04-25 19:14 54.23761 -2.97974 20157 ft 386 kts 154°
2026-04-25 19:14 54.21411 -2.95638 19649 ft 387 kts 149°
2026-04-25 19:15 54.19143 -2.93078 19149 ft 387 kts 147°
2026-04-25 19:15 54.16908 -2.90471 18649 ft 386 kts 147°
2026-04-25 19:15 54.14642 -2.87835 18083 ft 384 kts 147°
2026-04-25 19:15 54.12211 -2.85044 17490 ft 382 kts 148°
2026-04-25 19:16 54.10181 -2.82741 17013 ft 379 kts 148°
2026-04-25 19:16 54.08003 -2.80291 16534 ft 376 kts 148°
2026-04-25 19:16 54.05815 -2.77844 16030 ft 373 kts 148°
2026-04-25 19:16 54.03617 -2.75394 15554 ft 370 kts 148°
2026-04-25 19:17 54.01405 -2.72932 15284 ft 361 kts 148°
2026-04-25 19:17 53.99165 -2.70444 14644 ft 365 kts 148°
2026-04-25 19:17 53.97035 -2.68082 14117 ft 365 kts 148°
2026-04-25 19:17 53.94906 -2.65722 13577 ft 363 kts 148°
2026-04-25 19:18 53.92815 -2.63407 13077 ft 360 kts 148°
2026-04-25 19:18 53.90751 -2.61124 12602 ft 357 kts 147°
2026-04-25 19:18 53.88645 -2.58796 12350 ft 354 kts 147°
2026-04-25 19:18 53.86592 -2.56532 11665 ft 351 kts 147°
2026-04-25 19:19 53.84557 -2.54291 11218 ft 348 kts 147°
2026-04-25 19:19 53.82562 -2.52097 10769 ft 344 kts 147°
2026-04-25 19:19 53.80554 -2.49889 10321 ft 335 kts 147°
2026-04-25 19:19 53.79926 -2.49199 10183 ft 333 kts 147°
2026-04-25 19:20 53.76832 -2.45802 10112 ft 299 kts 147°
2026-04-25 19:20 53.75154 -2.43961 9980 ft 283 kts 147°
2026-04-25 19:20 53.73505 -2.42154 9611 ft 277 kts 147°
2026-04-25 19:20 53.71897 -2.40393 9142 ft 275 kts 147°
2026-04-25 19:21 53.70311 -2.38659 8901 ft 264 kts 148°
2026-04-25 19:21 53.67817 -2.35936 8531 ft 249 kts 148°
2026-04-25 19:21 53.66507 -2.34043 8107 ft 250 kts 126°
2026-04-25 19:22 53.65297 -2.30733 7615 ft 248 kts 120°
2026-04-25 19:22 53.64448 -2.28183 7240 ft 248 kts 120°
2026-04-25 19:22 53.63042 -2.23937 6739 ft 247 kts 120°
2026-04-25 19:23 53.62217 -2.21442 6556 ft 242 kts 120°
2026-04-25 19:23 53.60525 -2.16538 5862 ft 234 kts 130°
2026-04-25 19:23 53.59326 -2.14693 5496 ft 234 kts 140°
2026-04-25 19:24 53.58091 -2.12945 5246 ft 228 kts 140°
2026-04-25 19:24 53.56909 -2.11269 5044 ft 215 kts 140°
2026-04-25 19:24 53.54735 -2.08209 4688 ft 192 kts 140°
2026-04-25 19:25 53.52744 -2.05382 4444 ft 186 kts 140°
2026-04-25 19:25 53.51725 -2.03886 4324 ft 188 kts 140°
2026-04-25 19:25 53.50737 -2.02443 4165 ft 188 kts 142°
2026-04-25 19:26 53.49548 -2.01640 3985 ft 188 kts 179°
2026-04-25 19:26 53.48280 -2.02135 3917 ft 185 kts 199°
2026-04-25 19:26 53.47124 -2.03199 3691 ft 191 kts 225°
2026-04-25 19:26 53.46365 -2.04973 3473 ft 190 kts 231°
2026-04-25 19:27 53.45536 -2.06673 3205 ft 186 kts 227°
2026-04-25 19:27 53.44978 -2.07786 3037 ft 185 kts 228°
2026-04-25 19:27 53.43918 -2.09940 2728 ft 171 kts 229°
2026-04-25 19:27 53.43166 -2.11483 2461 ft 170 kts 229°
2026-04-25 19:28 53.42418 -2.13018 2248 ft 166 kts 229°
2026-04-25 19:28 53.41764 -2.14361 2040 ft 166 kts 229°
2026-04-25 19:28 53.41011 -2.15908 1808 ft 167 kts 229°
2026-04-25 19:28 53.40276 -2.17420 1563 ft 161 kts 229°
2026-04-25 19:29 53.39592 -2.18827 1356 ft 152 kts 229°
2026-04-25 19:29 53.38929 -2.20189 1165 ft 150 kts 229°
2026-04-25 19:29 53.38267 -2.21550 958 ft 150 kts 230°
2026-04-25 19:29 53.37588 -2.22947 737 ft 148 kts 232°
2026-04-25 19:30 53.36935 -2.24252 520 ft 145 kts 232°
2026-04-25 19:30 53.36303 -2.25562 353 ft 143 kts 234°
2026-04-25 19:30 53.35698 -2.26835 265 ft 129 kts 231°
2026-04-25 19:30 53.35231 -2.27794 237 ft 85 kts 231°
2026-04-25 19:31 53.34958 -2.28363 232 ft 40 kts 232°
2026-04-25 19:31 53.34864 -2.28574 228 ft 13 kts 265°
2026-04-25 19:31 53.34922 -2.28681 227 ft 13 kts 321°
2026-04-25 19:31 53.34996 -2.28752 226 ft 11 kts
2026-04-25 19:32 53.35035 -2.28705 227 ft 5 kts 44°
2026-04-25 19:32 53.35059 -2.28658 228 ft 5 kts 50°
2026-04-25 19:32 53.35082 -2.28612 228 ft 5 kts 52°
2026-04-25 19:32 53.35090 -2.28595 228 ft 7 kts 52°
2026-04-25 19:33 53.35183 -2.28397 228 ft 16 kts 51°
2026-04-25 19:33 53.35256 -2.28252 231 ft 17 kts 50°
2026-04-25 19:33 53.35340 -2.28105 237 ft 17 kts 44°
2026-04-25 19:33 53.35400 -2.28008 238 ft 18 kts 44°
2026-04-25 19:34 53.35495 -2.27917 239 ft 15 kts
2026-04-25 19:34 53.35612 -2.27897 239 ft 18 kts
2026-04-25 19:34 53.35731 -2.27877 245 ft 17 kts
2026-04-25 19:34 53.35843 -2.27858 251 ft 15 kts
2026-04-25 19:35 53.35947 -2.27854 254 ft 15 kts 346°
2026-04-25 19:35 53.36039 -2.27970 254 ft 17 kts 319°
2026-04-25 19:35 53.36133 -2.28111 254 ft 19 kts 315°
2026-04-25 19:35 53.36215 -2.28250 254 ft 15 kts 314°
2026-04-25 19:36 53.36294 -2.28386 254 ft 17 kts 314°
2026-04-25 19:36 53.36378 -2.28477 254 ft 13 kts 351°
2026-04-25 19:36 53.36461 -2.28558 254 ft 15 kts 316°
2026-04-25 19:36 53.36542 -2.28694 254 ft 17 kts 313°
2026-04-25 19:37 53.36601 -2.28838 254 ft 13 kts 306°
2026-04-25 19:37 53.36671 -2.28960 254 ft 16 kts 315°
2026-04-25 19:37 53.36744 -2.29070 254 ft 12 kts 341°
2026-04-25 19:37 53.36820 -2.29042 254 ft 11 kts 20°
2026-04-25 19:38 53.36867 -2.28972 254 ft 8 kts 74°
2026-04-25 19:38 53.36851 -2.28908 254 ft 4 kts 134°
2026-04-25 19:38 53.36842 -2.28893 254 ft 3 kts 134°
2026-04-25 19:38 53.36836 -2.28883 254 ft 0 kts 134°